When you browse on this site, cookies collect data to enhance your experience and personalize the content and advertising you see.
Visit our Privacy Policy to learn more. By continuing to use the site, you agree to this use of cookies and data.
  • In Switzerland
  • List of Countries
  • For 7 days
  • Water Temperature
  • Satellite Maps
  • Weather Map
  • Weather Widgets
  • user-avatar
    Login

    Hourly Weather Uige

    Today, 23 May, Thursday

    Time Temperature Precipitation Wind Pressure Humidity
    00:00 +22°C° 0 mm 1 mps 691 mmHg 98%
    01:00 +22°C° 0 mm 1 mps 691 mmHg 99%
    02:00 +22°C° 0 mm 1 mps 691 mmHg 98%
    03:00 +22°C° 0 mm 1 mps 691 mmHg 98%
    04:00 +22°C° 0 mm 1 mps 691 mmHg 97%
    05:00 +22°C° 0 mm 1 mps 691 mmHg 96%
    06:00 +22°C° 0 mm 1 mps 691 mmHg 96%
    07:00 +22°C° 0 mm 1 mps 692 mmHg 95%
    08:00 +24°C° 0.3 mm 1 mps 692 mmHg 88%
    09:00 +26°C° 0.3 mm 1 mps 692 mmHg 81%
    10:00 +28°C° 0.3 mm 1 mps 692 mmHg 73%
    11:00 +29°C° 0.9 mm 1 mps 692 mmHg 68%
    12:00 +30°C° 0.9 mm 1 mps 692 mmHg 63%
    13:00 +31°C° 0.9 mm 1 mps 691 mmHg 58%
    14:00 +29°C° 0.5 mm 0 mps 691 mmHg 58%
    15:00 +29°C° 0.5 mm 0 mps 691 mmHg 58%
    16:00 +28°C° 0.5 mm 0 mps 690 mmHg 58%
    17:00 +27°C° 0.2 mm 0 mps 690 mmHg 63%
    18:00 +25°C° 0.2 mm 0 mps 691 mmHg 69%
    19:00 +24°C° 0.2 mm 0 mps 691 mmHg 74%
    20:00 +23°C° 1.2 mm 0 mps 691 mmHg 80%
    21:00 +22°C° 1.2 mm 0 mps 691 mmHg 85%
    22:00 +21°C° 1.2 mm 0 mps 692 mmHg 91%
    23:00 +21°C° 0.1 mm 0 mps 692 mmHg 92%

    Tomorrow, 24 May, Friday

    Time Temperature Precipitation Wind Pressure Humidity
    00:00 +21°C° 0.1 mm 0 mps 692 mmHg 93%
    01:00 +21°C° 0.1 mm 0 mps 692 mmHg 94%
    02:00 +21°C° 0 mm 0 mps 691 mmHg 94%
    03:00 +21°C° 0 mm 0 mps 691 mmHg 95%
    04:00 +23°C° 0 mm 1 mps 691 mmHg 95%
    05:00 +23°C° 0 mm 1 mps 691 mmHg 94%
    06:00 +23°C° 0 mm 1 mps 691 mmHg 94%
    07:00 +23°C° 0 mm 1 mps 692 mmHg 93%
    08:00 +26°C° 0 mm 1 mps 692 mmHg 81%
    09:00 +28°C° 0 mm 1 mps 693 mmHg 69%
    10:00 +31°C° 0 mm 1 mps 693 mmHg 57%
    11:00 +31°C° 0.2 mm 2 mps 693 mmHg 54%
    12:00 +32°C° 0.2 mm 2 mps 692 mmHg 51%
    13:00 +34°C° 0.2 mm 2 mps 691 mmHg 48%
    14:00 +32°C° 0.1 mm 1 mps 691 mmHg 52%
    15:00 +31°C° 0.1 mm 1 mps 690 mmHg 56%
    16:00 +28°C° 0.1 mm 0 mps 690 mmHg 60%
    17:00 +29°C° 0.4 mm 1 mps 690 mmHg 67%
    18:00 +27°C° 0.4 mm 1 mps 690 mmHg 75%
    19:00 +25°C° 0.4 mm 1 mps 690 mmHg 82%
    20:00 +25°C° 0.5 mm 1 mps 691 mmHg 85%
    21:00 +22°C° 0.5 mm 0 mps 691 mmHg 88%
    22:00 +22°C° 0.5 mm 0 mps 692 mmHg 91%
    23:00 +21°C° 0.4 mm 0 mps 692 mmHg 92%

    Day after tomorrow, 25 May, Saturday

    Time Temperature Precipitation Wind Pressure Humidity
    00:00 +21°C° 0.4 mm 0 mps 691 mmHg 94%
    01:00 +23°C° 0.4 mm 1 mps 691 mmHg 96%
    02:00 +23°C° 0.9 mm 1 mps 691 mmHg 96%
    03:00 +23°C° 0.9 mm 1 mps 691 mmHg 96%
    04:00 +23°C° 0.9 mm 1 mps 690 mmHg 97%
    05:00 +23°C° 0.8 mm 1 mps 691 mmHg 95%
    06:00 +23°C° 0.8 mm 1 mps 691 mmHg 94%
    07:00 +23°C° 0.8 mm 1 mps 692 mmHg 93%
    08:00 +25°C° 0.9 mm 1 mps 692 mmHg 83%
    09:00 +28°C° 0.9 mm 1 mps 692 mmHg 73%
    10:00 +30°C° 0.9 mm 1 mps 693 mmHg 64%
    11:00 +31°C° 0 mm 2 mps 692 mmHg 56%
    12:00 +32°C° 0 mm 2 mps 692 mmHg 49%
    13:00 +34°C° 0 mm 2 mps 691 mmHg 42%
    14:00 +34°C° 0 mm 2 mps 691 mmHg 43%
    15:00 +33°C° 0 mm 1 mps 690 mmHg 43%
    16:00 +33°C° 0 mm 1 mps 690 mmHg 44%
    17:00 +31°C° 0 mm 1 mps 690 mmHg 50%
    18:00 +26°C° 0 mm 0 mps 690 mmHg 56%
    19:00 +24°C° 0 mm 0 mps 690 mmHg 62%
    20:00 +23°C° 0 mm 0 mps 690 mmHg 64%
    21:00 +23°C° 0 mm 0 mps 691 mmHg 65%
    22:00 +22°C° 0 mm 0 mps 691 mmHg 67%
    23:00 +22°C° 0 mm 0 mps 691 mmHg 70%

    26 May, Sunday

    Time Temperature Precipitation Wind Pressure Humidity
    00:00 +23°C° 0 mm 1 mps 690 mmHg 73%
    01:00 +22°C° 0 mm 1 mps 690 mmHg 76%
    02:00 +22°C° 0 mm 1 mps 690 mmHg 81%
    03:00 +21°C° 0 mm 1 mps 690 mmHg 85%
    04:00 +19°C° 0 mm 0 mps 690 mmHg 89%
    05:00 +19°C° 0 mm 0 mps 690 mmHg 88%
    06:00 +20°C° 0 mm 0 mps 691 mmHg 88%
    07:00 +20°C° 0 mm 0 mps 692 mmHg 87%
    08:00 +25°C° 0 mm 1 mps 692 mmHg 74%
    09:00 +28°C° 0 mm 1 mps 693 mmHg 61%
    10:00 +30°C° 0 mm 1 mps 693 mmHg 47%
    11:00 +32°C° 0 mm 1 mps 693 mmHg 42%
    12:00 +33°C° 0 mm 1 mps 692 mmHg 36%
    13:00 +34°C° 0 mm 1 mps 691 mmHg 31%
    14:00 +34°C° 0 mm 1 mps 691 mmHg 32%
    15:00 +33°C° 0 mm 1 mps 690 mmHg 33%
    16:00 +31°C° 0 mm 0 mps 690 mmHg 35%
    17:00 +29°C° 0 mm 0 mps 690 mmHg 43%
    18:00 +26°C° 0 mm 0 mps 690 mmHg 52%
    19:00 +24°C° 0 mm 0 mps 691 mmHg 61%
    20:00 +25°C° 0 mm 1 mps 691 mmHg 70%
    21:00 +24°C° 0 mm 1 mps 691 mmHg 80%
    22:00 +23°C° 0 mm 1 mps 692 mmHg 89%
    23:00 +23°C° 0 mm 1 mps 692 mmHg 92%

    27 May, Monday

    Time Temperature Precipitation Wind Pressure Humidity
    00:00 +23°C° 0 mm 1 mps 691 mmHg 95%
    01:00 +22°C° 0 mm 1 mps 691 mmHg 98%
    02:00 +22°C° 0 mm 1 mps 691 mmHg 98%
    03:00 +22°C° 0 mm 1 mps 691 mmHg 98%
    04:00 +22°C° 0 mm 1 mps 691 mmHg 98%
    05:00 +20°C° 0 mm 0 mps 691 mmHg 96%
    06:00 +20°C° 0 mm 0 mps 691 mmHg 95%
    07:00 +20°C° 0 mm 0 mps 692 mmHg 93%
    08:00 +23°C° 0 mm 0 mps 692 mmHg 81%
    09:00 +28°C° 0 mm 1 mps 693 mmHg 68%
    10:00 +30°C° 0 mm 1 mps 693 mmHg 55%
    11:00 +31°C° 0 mm 1 mps 693 mmHg 48%
    12:00 +33°C° 0 mm 1 mps 692 mmHg 41%
    13:00 +34°C° 0 mm 1 mps 692 mmHg 34%
    14:00 +33°C° 0 mm 1 mps 691 mmHg 37%
    15:00 +32°C° 0 mm 1 mps 690 mmHg 39%
    16:00 +31°C° 0 mm 1 mps 690 mmHg 42%
    17:00 +29°C° 0 mm 1 mps 690 mmHg 49%
    18:00 +25°C° 0 mm 0 mps 690 mmHg 56%
    19:00 +23°C° 0 mm 0 mps 690 mmHg 64%
    20:00 +22°C° 0 mm 0 mps 690 mmHg 67%
    21:00 +22°C° 0 mm 0 mps 691 mmHg 71%
    22:00 +21°C° 0 mm 0 mps 691 mmHg 74%
    23:00 +21°C° 0 mm 0 mps 691 mmHg 77%

    28 May, Tuesday

    Time Temperature Precipitation Wind Pressure Humidity
    00:00 +20°C° 0 mm 0 mps 690 mmHg 79%
    01:00 +22°C° 0 mm 1 mps 690 mmHg 82%
    02:00 +21°C° 0 mm 1 mps 690 mmHg 85%
    03:00 +21°C° 0 mm 1 mps 690 mmHg 87%
    04:00 +18°C° 0 mm 0 mps 690 mmHg 90%
    05:00 +21°C° 0 mm 1 mps 690 mmHg 89%
    06:00 +21°C° 0 mm 1 mps 691 mmHg 88%
    07:00 +22°C° 0 mm 1 mps 691 mmHg 86%
    08:00 +24°C° 0 mm 1 mps 692 mmHg 73%
    09:00 +27°C° 0 mm 1 mps 692 mmHg 59%
    10:00 +30°C° 0 mm 2 mps 693 mmHg 45%
    11:00 +31°C° 0 mm 1 mps 692 mmHg 40%
    12:00 +33°C° 0 mm 1 mps 691 mmHg 34%
    13:00 +34°C° 0 mm 1 mps 691 mmHg 29%
    14:00 +34°C° 0 mm 1 mps 691 mmHg 30%
    15:00 +33°C° 0 mm 1 mps 690 mmHg 31%
    16:00 +31°C° 0 mm 0 mps 690 mmHg 33%
    17:00 +28°C° 0 mm 0 mps 690 mmHg 38%
    18:00 +26°C° 0 mm 0 mps 690 mmHg 44%
    19:00 +23°C° 0 mm 0 mps 690 mmHg 50%
    20:00 +23°C° 0 mm 0 mps 690 mmHg 52%
    21:00 +22°C° 0 mm 0 mps 690 mmHg 54%
    22:00 +21°C° 0 mm 0 mps 691 mmHg 56%
    23:00 +21°C° 0 mm 0 mps 691 mmHg 59%
    Show more